Time,TemperatureF,DewpointF,PressureIn,WindDirection,WindDirectionDegrees,WindSpeedMPH,WindSpeedGustMPH,Humidity,HourlyPrecipIn,Conditions,Clouds,dailyrainin,SoftwareType,DateUTC
2013-06-22 10:52:00,76.0,-99.9,30.27,SSW,198,3.0,6.0,-999,0.00,,,-99.99,,2013-06-22 14:52:00,
2013-06-22 11:34:00,76.0,-99.9,30.27,SSW,198,3.0,6.0,-999,0.00,,,-99.99,,2013-06-22 15:34:00,
2013-06-22 11:43:00,76.0,-99.9,30.27,SSW,198,3.0,6.0,-999,0.00,,,-99.99,,2013-06-22 15:43:00,
2013-06-22 11:52:00,77.0,-99.9,30.27,SE,136,4.0,7.0,-999,0.00,,,-99.99,,2013-06-22 15:52:00,
2013-06-22 12:34:00,77.0,-99.9,30.27,SE,136,4.0,7.0,-999,0.00,,,-99.99,,2013-06-22 16:34:00,
2013-06-22 12:43:00,77.0,-99.9,30.27,SE,136,4.0,7.0,-999,0.00,,,-99.99,,2013-06-22 16:43:00,
2013-06-22 12:52:00,80.0,-99.9,30.26,South,183,4.0,6.0,-999,0.00,,,-99.99,,2013-06-22 16:52:00,
2013-06-22 13:34:00,80.0,-99.9,30.26,South,183,4.0,6.0,-999,0.00,,,-99.99,,2013-06-22 17:34:00,
2013-06-22 13:43:00,80.0,-99.9,30.26,South,183,4.0,6.0,-999,0.00,,,-99.99,,2013-06-22 17:43:00,
2013-06-22 13:52:00,80.0,-99.9,30.22,WSW,253,8.0,15.0,-999,0.00,,,-99.99,,2013-06-22 17:52:00,
2013-06-22 14:34:00,80.0,-99.9,30.22,WSW,253,8.0,15.0,-999,0.00,,,-99.99,,2013-06-22 18:34:00,
2013-06-22 14:43:00,80.0,-99.9,30.22,WSW,253,8.0,15.0,-999,0.00,,,-99.99,,2013-06-22 18:43:00,
2013-06-22 14:52:00,81.0,-99.9,30.21,ESE,123,2.0,7.0,-999,0.00,,,-99.99,,2013-06-22 18:52:00,
2013-06-22 15:33:00,81.0,-99.9,30.21,ESE,123,2.0,7.0,-999,0.00,,,-99.99,,2013-06-22 19:33:00,
2013-06-22 15:43:00,81.0,-99.9,30.21,ESE,123,2.0,7.0,-999,0.00,,,-99.99,,2013-06-22 19:43:00,
2013-06-22 15:52:00,80.0,-99.9,30.19,West,275,-999.0,11.0,-999,0.00,,,-99.99,,2013-06-22 19:52:00,
2013-06-22 16:34:00,80.0,-99.9,30.19,West,275,-999.0,11.0,-999,0.00,,,-99.99,,2013-06-22 20:34:00,
2013-06-22 16:43:00,80.0,-99.9,30.19,West,275,-999.0,11.0,-999,0.00,,,-99.99,,2013-06-22 20:43:00,
2013-06-22 16:52:00,79.0,-99.9,30.16,NW,309,-999.0,7.0,-999,0.00,,,-99.99,,2013-06-22 20:52:00,
2013-06-22 17:34:00,79.0,-99.9,30.16,NW,309,-999.0,7.0,-999,0.00,,,-99.99,,2013-06-22 21:34:00,
2013-06-22 17:43:00,79.0,-99.9,30.16,NW,309,-999.0,7.0,-999,0.00,,,-99.99,,2013-06-22 21:43:00,
2013-06-22 17:52:00,78.0,-99.9,30.14,SSW,205,-999.0,10.0,-999,0.00,,,-99.99,,2013-06-22 21:52:00,
2013-06-22 18:33:00,78.0,-99.9,30.14,SSW,205,-999.0,10.0,-999,0.00,,,-99.99,,2013-06-22 22:33:00,
2013-06-22 18:43:00,78.0,-99.9,30.14,SSW,205,-999.0,10.0,-999,0.00,,,-99.99,,2013-06-22 22:43:00,
2013-06-22 18:52:00,76.0,-99.9,30.13,SSW,195,-999.0,3.0,-999,0.00,,,-99.99,,2013-06-22 22:52:00,
2013-06-22 19:34:00,76.0,-99.9,30.13,SSW,195,-999.0,3.0,-999,0.00,,,-99.99,,2013-06-22 23:34:00,
2013-06-22 19:43:00,76.0,-99.9,30.13,SSW,195,-999.0,3.0,-999,0.00,,,-99.99,,2013-06-22 23:43:00,
2013-06-22 19:52:00,74.0,-99.9,30.13,WSW,242,-999.0,-999.0,-999,0.00,,,-99.99,,2013-06-22 23:52:00,
2013-06-22 20:34:00,74.0,-99.9,30.13,WSW,242,-999.0,-999.0,-999,0.00,,,-99.99,,2013-06-23 00:34:00,
2013-06-22 20:42:00,74.0,-99.9,30.13,WSW,242,-999.0,-999.0,-999,0.00,,,-99.99,,2013-06-23 00:42:00,
2013-06-22 20:52:00,71.0,-99.9,30.14,WSW,242,-999.0,-999.0,-999,0.00,,,-99.99,,2013-06-23 00:52:00,
2013-06-22 21:32:00,71.0,-99.9,30.14,WSW,242,-999.0,-999.0,-999,0.00,,,-99.99,,2013-06-23 01:32:00,
2013-06-22 21:42:00,71.0,-99.9,30.14,WSW,242,-999.0,-999.0,-999,0.00,,,-99.99,,2013-06-23 01:42:00,
2013-06-22 21:52:00,69.0,-99.9,30.16,WSW,242,-999.0,-999.0,-999,0.00,,,-99.99,,2013-06-23 01:52:00,
2013-06-22 22:31:00,69.0,-99.9,30.16,WSW,242,-999.0,-999.0,-999,0.00,,,-99.99,,2013-06-23 02:31:00,
2013-06-22 22:41:00,69.0,-99.9,30.16,WSW,242,-999.0,-999.0,-999,0.00,,,-99.99,,2013-06-23 02:41:00,
2013-06-22 22:52:00,67.0,-99.9,30.17,WSW,242,-999.0,-999.0,-999,0.00,,,-99.99,,2013-06-23 02:52:00,
2013-06-22 23:31:00,67.0,-99.9,30.17,WSW,242,-999.0,-999.0,-999,0.00,,,-99.99,,2013-06-23 03:31:00,
2013-06-22 23:41:00,67.0,-99.9,30.17,WSW,242,-999.0,-999.0,-999,0.00,,,-99.99,,2013-06-23 03:41:00,
2013-06-22 23:52:00,66.0,-99.9,30.19,WSW,242,-999.0,-999.0,-999,0.00,,,-99.99,,2013-06-23 03:52:00,